Location: Nitra
(0.0000°N, 18.0833°E)
Time: 04:52:19
(UTC+01:00)

GEOS 3 Rocket - Pass Details

Date: 24 January 2021
Orbit: 772 x 847 km, 115.0° (Epoch: 04 March)

Event Time Altitude Azimuth Distance (km) Brightness Sun altitude
Exits shadow 19:16:54 25° 35° (NE) 1,583 4.7 -18.2°
Maximum altitude 19:20:01 79° 118° (ESE) 816 3.5 -18.9°
Drops below altitude 10° 19:25:07 10° 205° (SSW) 2,349 6.6 -20.1°
Sets 19:27:22 0° 206° (SSW) 3,270 7.5 -20.6°
